Regional Weather Roundup
Issued by NWS

Home | Current Version | Previous Version | Text Only | Print | Product List | Glossary Off
Versions: 1 2 3 4 5 6 7 8 9 10 11 12 13 14 15 16 17 18 19 20 21 22 23 24 25 26 27 28 29 30 31 32 33 34 35 36 37 38 39 40 41 42 43 44 45 46 47 48 49 50

000
ASUS44 KOUN 232010
RWROK

WEATHER ROUNDUP FOR OKLAHOMA
NATIONAL WEATHER SERVICE NORMAN OK
200 PM CST SUN NOV 23 2014

NOTE: "FAIR" INDICATES FEW OR NO CLOUDS BELOW 12,000 FEET WITH NO
      SIGNIFICANT WEATHER AND/OR OBSTRUCTIONS TO VISIBILITY.

OKZ001>007-009>012-014-015-017-232100-
NORTHWEST OKLAHOMA AND THE PANHANDLE

CITY           SKY/WX    TMP DP  RH WIND       PRES   REMARKS
GAGE           CLOUDY    47  33  58 N36G44    29.56R
ENID/WOODRING  PTSUNNY   61  48  63 NW16G22   29.34F
$$

OKZ016-021>023-033>039-044-045-232100-
SOUTHWEST OKLAHOMA

CITY           SKY/WX    TMP DP  RH WIND       PRES   REMARKS
LAWTON/REGL    SUNNY     63  43  48 NW15G24   29.38R
LAWTON/FT SILL SUNNY     64  42  45 NW22G29   29.38R
FREDERICK      PTSUNNY   60  46  59 NW28G36   29.41R
CLINTON        CLOUDY    52  38  58 NW37G46   29.48R
HOBART         PTSUNNY   57  44  62 N33G46    29.45R
ALTUS AFB      CLOUDY    59  44  57 NW28G36   29.46R
$$

OKZ018>020-024>031-232100-
CENTRAL OKLAHOMA

CITY           SKY/WX    TMP DP  RH WIND       PRES   REMARKS
OKLAHOMA CITY  PTSUNNY   61  45  55 NW16G24   29.35R
OKC/WILEY POST PTSUNNY   60  46  59 NW13      29.35R
OKC/TINKER AFB CLOUDY    60  46  61 W16       29.34R
STILLWATER     CLOUDY    60  46  59 W5        29.33F
GUTHRIE        PTSUNNY   60  47  61 NW7       29.34S
$$

OKZ008-013-054>072-232100-
NORTHEAST OKLAHOMA

CITY           SKY/WX    TMP DP  RH WIND       PRES   REMARKS
TULSA          PTSUNNY   65  53  65 SW7       29.28F
TULSA/JONES    PTSUNNY   66  54  65 SW6       29.29F
PONCA CITY     PTSUNNY   62  47  57 NW14      29.33F
BARTLESVILLE   CLOUDY    62  54  74 E3        29.32F
MUSKOGEE       PTSUNNY   68  55  63 SW14      29.30F
$$

OKZ032-040>043-046>053-073>077-232100-
SOUTH CENTRAL/SOUTHEAST OKLAHOMA

CITY           SKY/WX    TMP DP  RH WIND       PRES   REMARKS
ARDMORE/DWNTWN SUNNY     70  36  28 W13G18    29.33S
MCALESTER      MOSUNNY   70  53  54 SW16G23   29.30F
$$



USA.gov is the U.S. government's official web portal to all federal, state and local government web resources and services.